FW6665 Weather Reports


time (UTC)temp
C
wind
direction
speed
KPH
gust
KPH
rain 1hr
cm
rain 24hr
cm
rain mn
cm
humidity
%
barometer
mb
20260905024704 13 227 1.6 9.7 0.00 0.05 0.00 78 1017.7
20260905023704 13 237 1.6 8.0 0.00 0.05 0.00 78 1017.6
20260905023204 13 235 1.6 8.0 0.00 0.05 0.00 78 1017.5
20260905022704 13 235 1.6 8.0 0.00 0.05 0.00 78 1017.6
20260905021704 13 185 3.2 8.0 0.00 0.05 0.00 78 1017.5
20260905021205 13 250 1.6 8.0 0.00 0.05 0.00 78 1017.4
20260905020704 13 250 1.6 9.7 0.00 0.05 0.00 78 1017.5
20260905015714 13 234 1.6 9.7 0.00 0.05 0.00 78 1017.4
20260905015203 13 238 3.2 8.0 0.00 0.05 0.00 78 1017.3
20260905014704 13 238 0.0 8.0 0.00 0.05 0.00 78 1017.3
20260905014204 13 238 3.2 8.0 0.00 0.05 0.00 78 1017.2
20260905013704 13 245 3.2 8.0 0.00 0.05 0.00 79 1017.2
20260905012704 13 244 3.2 8.0 0.00 0.05 0.00 79 1017.1
20260905011704 13 224 3.2 8.0 0.00 0.05 0.00 79 1017.2
20260905011204 13 233 4.8 8.0 0.00 0.05 0.00 79 1017.1
20260905010705 13 234 3.2 8.0 0.00 0.05 0.00 78 1017.2
20260905010205 13 221 1.6 8.0 0.00 0.05 0.00 78 1017.1
20260905005705 13 251 1.6 9.7 0.00 0.05 0.00 78 1017.1
20260905005204 14 247 3.2 9.7 0.00 0.05 0.00 78 1017.2
20260905004705 14 252 1.6 8.0 0.00 0.05 0.00 78 1017.1
20260905004204 14 183 1.6 9.7 0.00 0.05 0.00 78 1017.0
20260905003704 14 196 3.2 9.7 0.00 0.05 0.00 78 1017.1
20260905003204 14 238 1.6 6.4 0.00 0.05 0.00 78 1017.0
20260905002704 14 237 1.6 8.0 0.00 0.05 0.00 78 1017.0
20260905001705 14 235 1.6 8.0 0.00 0.05 0.00 78 1017.0
20260905001204 14 235 3.2 6.4 0.00 0.05 0.00 78 1017.0
20260905000704 14 227 3.2 8.0 0.00 0.05 0.00 78 1017.0
20260905000204 14 220 1.6 8.0 0.00 0.05 0.00 78 1016.9
20260904235704 14 217 1.6 6.4 0.00 0.05 0.00 78 1016.7
20260904235205 14 214 1.6 8.0 0.00 0.05 0.00 78 1016.9
20260904234706 14 199 3.2 8.0 0.00 0.05 0.00 78 1016.7
20260904234203 15 243 1.6 8.0 0.00 0.05 0.00 78 1016.7
20260904233204 15 250 3.2 8.0 0.00 0.05 0.00 77 1016.6
20260904232703 15 248 1.6 8.0 0.00 0.05 0.00 77 1016.7
20260904232204 15 248 1.6 8.0 0.00 0.05 0.00 77 1016.8
20260904231704 15 251 1.6 8.0 0.00 0.05 0.00 77 1016.6
20260904230704 15 238 1.6 8.0 0.00 0.05 0.00 77 1016.6
20260904230204 15 244 3.2 6.4 0.00 0.05 0.05 77 1016.5
20260904225704 15 243 1.6 14.5 0.00 0.05 0.05 77 1016.4
20260904225204 15 243 1.6 14.5 0.00 0.05 0.05 77 1016.4
20260904224704 15 240 1.6 14.5 0.00 0.05 0.05 77 1016.4
20260904224204 15 190 1.6 8.0 0.00 0.05 0.05 77 1016.4
20260904223704 15 189 1.6 8.0 0.00 0.05 0.05 77 1016.4
20260904223204 15 228 3.2 6.4 0.00 0.05 0.05 76 1016.3
20260904221704 15 221 1.6 4.8 0.00 0.05 0.05 76 1016.4
20260904221205 15 224 1.6 9.7 0.00 0.05 0.05 76 1016.3
20260904220704 15 234 1.6 9.7 0.00 0.05 0.05 76 1016.3
20260904220204 15 237 1.6 9.7 0.00 0.05 0.05 76 1016.2
20260904215204 16 186 1.6 8.0 0.00 0.05 0.05 75 1016.2
20260904214704 16 227 1.6 6.4 0.00 0.05 0.05 75 1016.2
20260904214204 16 228 3.2 6.4 0.00 0.05 0.05 75 1016.2
20260904213705 16 248 1.6 6.4 0.00 0.05 0.05 75 1016.1
20260904213207 16 220 0.0 9.7 0.00 0.05 0.05 74 1016.0
20260904212704 16 224 1.6 9.7 0.00 0.05 0.05 74 1016.0
20260904212203 16 244 1.6 9.7 0.00 0.05 0.05 74 1015.8
20260904211704 16 238 3.2 8.0 0.00 0.05 0.05 73 1015.8
20260904211204 16 238 3.2 8.0 0.00 0.05 0.05 73 1015.8
20260904210704 16 238 1.6 8.0 0.00 0.05 0.05 73 1015.7
20260904210204 16 244 3.2 4.8 0.00 0.05 0.05 72 1015.9
20260904205704 16 233 1.6 8.0 0.00 0.05 0.05 72 1015.9
20260904205204 17 233 3.2 9.7 0.00 0.05 0.05 72 1015.9
20260904204704 17 248 1.6 9.7 0.00 0.05 0.05 71 1015.9
20260904204230 17 237 3.2 9.7 0.00 0.05 0.05 71 1015.9
20260904203704 17 231 3.2 9.7 0.00 0.05 0.05 71 1015.7
20260904203204 17 240 3.2 14.5 0.00 0.05 0.05 70 1015.6
20260904202704 17 245 4.8 14.5 0.00 0.05 0.05 70 1015.6
20260904202204 17 241 3.2 14.5 0.00 0.05 0.05 70 1015.7
20260904201704 17 266 3.2 19.3 0.00 0.05 0.05 70 1015.7
20260904201205 17 241 4.8 19.3 0.00 0.05 0.05 69 1015.7
20260904200704 17 238 6.4 17.7 0.00 0.05 0.05 69 1015.6
20260904195705 17 245 6.4 20.9 0.00 0.05 0.05 68 1015.6
20260904195204 17 244 3.2 20.9 0.00 0.05 0.05 67 1015.5
20260904194709 17 238 4.8 14.5 0.00 0.05 0.05 67 1015.4
20260904193704 18 228 6.4 14.5 0.00 0.05 0.05 66 1015.3
20260904192703 18 234 3.2 14.5 0.00 0.05 0.05 64 1014.9
20260904192204 18 159 3.2 14.5 0.00 0.05 0.05 64 1014.8
20260904191704 18 247 6.4 16.1 0.00 0.05 0.05 63 1014.8
20260904191204 18 238 3.2 16.1 0.00 0.05 0.05 63 1014.8
20260904190204 18 210 6.4 16.1 0.00 0.05 0.05 62 1014.7
20260904185704 18 235 4.8 14.5 0.00 0.05 0.05 62 1014.5
20260904185205 18 243 4.8 14.5 0.00 0.05 0.05 62 1014.4
20260904184704 18 245 4.8 16.1 0.00 0.05 0.05 61 1014.3
20260904184204 18 244 6.4 16.1 0.00 0.05 0.05 61 1014.3
20260904183704 18 243 6.4 16.1 0.00 0.05 0.05 61 1014.2
20260904182704 18 252 4.8 20.9 0.00 0.05 0.05 61 1014.0
20260904181209 18 230 9.7 17.7 0.00 0.05 0.05 61 1013.9
20260904180704 18 255 6.4 16.1 0.00 0.05 0.05 62 1013.9
20260904180204 18 247 6.4 14.5 0.00 0.05 0.05 62 1013.8
20260904175704 18 240 4.8 14.5 0.00 0.05 0.05 62 1013.6
20260904175205 19 200 4.8 14.5 0.00 0.05 0.05 61 1013.7
20260904174727 19 173 3.2 16.1 0.00 0.05 0.05 61 1013.6
20260904174205 19 235 4.8 24.1 0.00 0.05 0.05 61 1013.6
20260904173708 19 243 4.8 24.1 0.00 0.05 0.05 60 1013.5
20260904173204 19 240 8.0 24.1 0.00 0.05 0.05 60 1013.4
20260904172704 19 241 8.0 17.7 0.00 0.05 0.05 60 1013.4
20260904172204 19 231 4.8 17.7 0.00 0.05 0.05 59 1013.3
20260904171704 19 237 3.2 14.5 0.00 0.05 0.05 58 1013.3
20260904171214 19 235 3.2 17.7 0.00 0.05 0.05 58 1013.3
20260904170704 19 255 6.4 17.7 0.00 0.05 0.05 57 1013.3
20260904170209 19 262 4.8 17.7 0.00 0.05 0.05 56 1013.2
20260904165204 19 254 6.4 20.9 0.00 0.05 0.05 55 1013.2
20260904164704 19 252 6.4 20.9 0.00 0.05 0.05 55 1013.2
20260904164204 19 265 6.4 20.9 0.00 0.05 0.05 55 1013.0
20260904163703 20 251 8.0 24.1 0.00 0.05 0.05 55 1012.9
20260904163204 20 195 8.0 24.1 0.00 0.05 0.05 56 1012.8
20260904162703 20 164 4.8 20.9 0.00 0.05 0.05 57 1012.9
20260904162205 20 255 9.7 22.5 0.00 0.05 0.05 58 1012.9
20260904161705 20 244 6.4 22.5 0.00 0.05 0.05 58 1012.7
20260904161204 20 224 8.0 19.3 0.00 0.05 0.05 58 1012.7
20260904160704 20 254 6.4 19.3 0.00 0.05 0.05 57 1012.6
20260904155205 20 99 3.2 20.9 0.00 0.05 0.05 57 1012.3
20260904154203 20 182 9.7 20.9 0.00 0.05 0.05 56 1012.5
20260904153704 20 241 6.4 22.5 0.00 0.05 0.05 57 1012.6
20260904153204 20 235 6.4 22.5 0.00 0.05 0.05 56 1012.6
20260904151705 20 268 8.0 22.5 0.00 0.05 0.05 57 1012.4
20260904151204 20 248 9.7 20.9 0.00 0.05 0.05 57 1012.4
20260904150704 20 237 6.4 22.5 0.00 0.05 0.05 57 1012.4
20260904150204 20 224 8.0 22.5 0.00 0.05 0.05 57 1012.6
20260904145704 20 265 4.8 19.3 0.00 0.05 0.05 57 1012.3
20260904145205 20 223 4.8 19.3 0.00 0.05 0.05 56 1012.2
20260904144704 20 149 3.2 24.1 0.00 0.05 0.05 56 1012.3
20260904144204 20 265 8.0 24.1 0.00 0.05 0.05 56 1012.2
20260904143704 20 240 4.8 24.1 0.00 0.05 0.05 58 1012.1
20260904143204 20 241 8.0 20.9 0.00 0.05 0.05 58 1011.9
20260904142704 20 257 9.7 20.9 0.00 0.05 0.05 59 1012.1
20260904142209 20 231 6.4 22.5 0.00 0.05 0.05 59 1012.0
20260904141704 20 240 9.7 22.5 0.00 0.05 0.05 59 1012.1
20260904141204 20 241 8.0 22.5 0.00 0.05 0.05 58 1012.0
20260904140705 20 264 8.0 22.5 0.00 0.05 0.05 59 1012.2
20260904140205 20 238 11.3 22.5 0.00 0.05 0.05 59 1012.1
20260904135705 20 238 6.4 22.5 0.00 0.05 0.05 60 1012.2
20260904135205 20 235 9.7 24.1 0.00 0.05 0.05 60 1012.2
20260904134704 20 230 8.0 30.6 0.00 0.05 0.05 60 1012.1
20260904134204 20 226 9.7 30.6 0.00 0.05 0.05 60 1011.8
20260904133706 20 202 11.3 30.6 0.00 0.05 0.05 59 1012.0
20260904132705 20 244 12.9 29.0 0.00 0.05 0.05 60 1011.9
20260904132206 20 224 6.4 29.0 0.00 0.05 0.05 60 1012.0
20260904131704 21 257 14.5 29.0 0.00 0.05 0.05 59 1012.1
20260904130704 20 266 9.7 25.7 0.00 0.05 0.05 59 1011.9
20260904130205 21 221 12.9 22.5 0.00 0.05 0.05 60 1011.8
20260904125704 21 261 6.4 22.5 0.00 0.05 0.05 64 1011.6
20260904124704 20 233 9.7 24.1 0.00 0.05 0.05 64 1011.4
20260904124204 20 250 8.0 24.1 0.00 0.05 0.05 64 1011.4
20260904123704 20 245 9.7 24.1 0.00 0.05 0.05 64 1011.3
20260904123204 20 244 6.4 22.5 0.00 0.05 0.05 64 1011.2
20260904122704 20 255 8.0 25.7 0.00 0.05 0.05 64 1011.4
20260904121704 20 262 9.7 25.7 0.00 0.05 0.05 64 1011.2
20260904121203 20 235 11.3 20.9 0.00 0.05 0.05 64 1011.2
20260904120704 20 233 6.4 20.9 0.00 0.05 0.05 66 1011.0
20260904120209 20 244 8.0 32.2 0.00 0.05 0.05 66 1010.8
20260904115705 20 188 4.8 32.2 0.00 0.05 0.05 66 1010.8
20260904115204 20 241 6.4 32.2 0.00 0.05 0.05 66 1010.9
20260904114704 20 265 11.3 25.7 0.00 0.05 0.05 66 1010.9
20260904114203 20 255 9.7 20.9 0.00 0.05 0.05 66 1010.8
20260904113704 21 238 6.4 20.9 0.00 0.05 0.05 68 1010.7
20260904113204 21 298 8.0 22.5 0.00 0.05 0.05 69 1010.5
20260904112704 21 244 8.0 22.5 0.00 0.05 0.05 69 1010.3
20260904112204 21 231 11.3 24.1 0.00 0.05 0.05 68 1010.5
20260904111704 21 272 11.3 24.1 0.00 0.05 0.05 69 1010.4
20260904111214 21 259 8.0 24.1 0.00 0.05 0.05 69 1010.2
20260904110704 21 257 8.0 27.4 0.00 0.05 0.05 70 1010.4
20260904110204 21 228 3.2 27.4 0.00 0.05 0.05 71 1010.3
20260904104704 20 237 8.0 24.1 0.00 0.05 0.05 74 1010.1
20260904104204 20 255 9.7 22.5 0.00 0.05 0.05 73 1010.2
20260904103704 20 275 8.0 22.5 0.00 0.05 0.05 74 1010.4
20260904103205 20 234 9.7 24.1 0.00 0.05 0.05 74 1010.3
20260904102704 20 233 9.7 24.1 0.00 0.05 0.05 75 1010.2
20260904101204 20 166 6.4 20.9 0.00 0.05 0.05 76 1010.0
20260904100704 20 244 4.8 20.9 0.00 0.05 0.05 77 1009.9
20260904100204 20 241 6.4 20.9 0.00 0.05 0.05 77 1009.8
20260904095704 20 259 9.7 19.3 0.00 0.05 0.05 77 1009.8
20260904095233 20 228 6.4 20.9 0.00 0.05 0.05 77 1009.7
20260904094704 19 258 6.4 20.9 0.00 0.05 0.05 77 1009.5
20260904094204 19 231 8.0 20.9 0.00 0.05 0.05 77 1009.6
20260904093707 19 235 8.0 14.5 0.00 0.05 0.05 76 1009.8
20260904093206 19 255 3.2 14.5 0.00 0.05 0.05 74 1009.9
20260904091704 18 226 4.8 19.3 0.05 0.05 0.05 72 1009.9
20260904090704 18 245 8.0 16.1 0.05 0.05 0.05 72 1009.8
20260904090204 18 258 4.8 16.1 0.05 0.05 0.05 71 1009.8
20260904085705 19 231 8.0 14.5 0.05 0.05 0.05 71 1009.6
20260904085204 19 228 4.8 16.1 0.05 0.05 0.05 70 1009.6
20260904084704 19 231 6.4 16.1 0.05 0.05 0.05 71 1009.4
20260904083704 19 241 4.8 25.7 0.05 0.05 0.05 72 1009.4
20260904083204 19 240 6.4 25.7 0.05 0.05 0.05 74 1009.3
20260904082704 20 254 9.7 25.7 0.05 0.05 0.00 75 1009.1
20260904081703 21 188 6.4 27.4 0.00 0.00 0.00 76 1008.4
20260904080204 21 252 8.0 25.7 0.00 0.00 0.00 77 1008.2
20260904075704 21 289 9.7 25.7 0.00 0.00 0.00 77 1008.1
20260904075204 21 221 9.7 25.7 0.00 0.00 0.00 77 1008.0
20260904074704 21 243 4.8 20.9 0.00 0.00 0.00 77 1007.9
20260904074204 21 178 8.0 20.9 0.00 0.00 0.00 77 1008.0
20260904073705 21 306 4.8 20.9 0.00 0.00 0.00 77 1007.9
20260904073206 21 104 6.4 20.9 0.00 0.00 0.00 77 1008.0
20260904072704 21 240 8.0 22.5 0.00 0.00 0.00 77 1007.9
20260904072205 21 244 6.4 22.5 0.00 0.00 0.00 77 1007.8
20260904070204 21 159 6.4 16.1 0.00 0.00 0.00 77 1007.7
20260904065706 21 226 6.4 20.9 0.00 0.00 0.00 77 1007.7
20260904065204 21 272 6.4 20.9 0.00 0.00 0.00 77 1007.9
20260904064714 20 219 6.4 20.9 0.00 0.00 0.00 77 1007.8
20260904064209 20 231 6.4 17.7 0.00 0.00 0.00 77 1007.8
20260904063704 20 216 4.8 19.3 0.00 0.00 0.00 77 1007.9
20260904063205 20 282 6.4 20.9 0.00 0.00 0.00 77 1007.8
20260904062704 20 131 6.4 20.9 0.00 0.00 0.00 77 1007.8
20260904061703 20 142 6.4 17.7 0.00 0.00 0.00 77 1008.2
20260904061205 20 248 6.4 14.5 0.00 0.00 0.00 77 1008.2
20260904060703 20 272 6.4 19.3 0.00 0.00 0.00 77 1008.3
20260904060204 20 183 3.2 19.3 0.00 0.00 0.00 77 1008.3
20260904055704 20 97 4.8 19.3 0.00 0.00 0.00 77 1008.3
20260904055204 20 204 4.8 19.3 0.00 0.00 0.00 77 1008.2
20260904054704 20 148 4.8 22.5 0.00 0.00 0.00 77 1008.1
20260904054203 20 250 4.8 22.5 0.00 0.00 0.00 77 1008.0
20260904053704 20 268 3.2 22.5 0.00 0.00 0.00 77 1008.1
20260904053204 20 230 8.0 22.5 0.00 0.00 0.00 77 1008.1
20260904052704 20 238 4.8 22.5 0.00 0.00 0.00 77 1008.1
20260904052204 20 180 4.8 17.7 0.00 0.00 0.00 77 1007.8
20260904051704 20 230 3.2 24.1 0.00 0.00 0.00 77 1008.0
20260904051204 20 226 4.8 25.7 0.00 0.00 0.00 77 1008.2
20260904050705 20 206 3.2 25.7 0.00 0.00 0.00 77 1008.2
20260904050204 20 116 6.4 25.7 0.00 0.00 0.00 77 1008.4
20260904045705 20 250 9.7 16.1 0.00 0.00 0.00 77 1008.4
20260904045204 20 179 4.8 14.5 0.00 0.00 0.00 77 1008.6
20260904044704 20 259 4.8 17.7 0.00 0.00 0.00 77 1008.6
20260904044204 20 272 4.8 17.7 0.00 0.00 0.00 77 1008.6
20260904043704 20 148 4.8 17.7 0.00 0.00 0.00 77 1008.6
20260904043203 20 227 6.4 16.1 0.00 0.00 0.00 77 1008.7
20260904042705 20 216 4.8 19.3 0.00 0.00 0.00 77 1008.9
20260904042205 20 252 6.4 19.3 0.00 0.00 0.00 77 1008.9
20260904041705 20 151 4.8 16.1 0.00 0.00 0.00 77 1008.9
20260904041204 20 243 3.2 16.1 0.00 0.00 0.00 77 1009.0
20260904040704 20 145 3.2 17.7 0.00 0.00 0.00 77 1008.9
20260904040204 20 189 4.8 17.7 0.00 0.00 0.00 77 1008.9
20260904035704 20 188 4.8 17.7 0.00 0.00 0.00 77 1008.9
20260904035204 20 262 3.2 17.7 0.00 0.00 0.00 77 1008.9
20260904034704 20 235 6.4 24.1 0.00 0.00 0.00 77 1009.1
20260904034204 20 192 6.4 24.1 0.00 0.00 0.00 77 1009.1
20260904033704 20 189 4.8 24.1 0.00 0.00 0.00 77 1009.2
20260904033205 20 172 6.4 22.5 0.00 0.00 0.00 77 1009.1
20260904032706 20 152 6.4 22.5 0.00 0.00 0.00 77 1009.1
20260904032205 20 209 3.2 22.5 0.00 0.00 0.00 77 1009.0
20260904031704 20 178 4.8 14.5 0.00 0.00 0.00 77 1009.2
20260904031204 20 254 4.8 19.3 0.00 0.00 0.00 77 1009.4
20260904030704 20 89 4.8 19.3 0.00 0.00 0.00 77 1009.5
20260904030204 20 192 6.4 19.3 0.00 0.00 0.00 77 1009.7
20260904025704 20 217 6.4 19.3 0.00 0.00 0.00 77 1009.7